Location: Colonial Hills
(40.5656°N, 77.6119°W)
Time: 15:44:56
(UTC+00:00)

X-37B - Pass Details

Date: 29 November 2020
Orbit: 384 x 390 km, 45.0° (Epoch: 02 January)

Event Time Altitude Azimuth Distance (km) Brightness Sun altitude
Rises 23:53:45 0° 268° (W) 2,262 5.9 -24.0°
Reaches altitude 10° 23:55:53 10° 276° (W) 1,410 4.4 -24.4°
Enters shadow 23:57:33 25° 293° (WNW) 816 2.7 -24.7°
